Location: Braden Valley Church
(38.0012°N, 88.6106°W)
Time: 01:55:58
(UTC+00:00)

MOS 1-B - Pass Details

Date: 08 December 2021
Orbit: 905 x 913 km, 99.4° (Epoch: 21 January)

Event Time Altitude Azimuth Distance (km) Brightness Sun altitude
Rises 23:40:33 0° 158° (SSE) 3,517 7.4 -12.7°
Reaches altitude 10° 23:42:57 10° 156° (SSE) 2,580 6.7 -13.1°
Maximum altitude 23:48:40 71° 73° (ENE) 957 4.3 -14.2°
Drops below altitude 10° 23:54:25 10° 350° (N) 2,599 6.7 -15.3°
Sets 23:56:51 0° 349° (N) 3,546 7.4 -15.7°
